Danmarkshavn, Greenland

4:54 PM WGT on February 19, 2017 (GMT -0300)
Danmarkshavn

Weather History for BGDH - March, 2014

Change the Weather History Date:

Saturday, March 22, 2014

  Actual Average Record
Temperature  
Mean Temperature -16 °F -  
Max Temperature -9 °F 6 °F - ()
Min Temperature -22 °F -10 °F - ()
Degree Days  
Heating Degree Days 80    
Moisture  
Dew Point -19 °F    
Average Humidity 66    
Maximum Humidity 70    
Minimum Humidity 60    
Precipitation  
Precipitation 0.00 in 0.02 in - ()
Sea Level Pressure  
Sea Level Pressure 29.80 in    
Wind  
Wind Speed 7 mph ()    
Max Wind Speed 14 mph    
Max Gust Speed -    
Visibility 17.0 miles    
Events Snow    
T = Trace of Precipitation, MM = Missing Value Source: Averaged Metar Reports

Daily Weather History Graph

Daily Weather History Graph

Search for Another Location

Airport or City:

Trip Planner

Search our weather history database for the weather conditions in past years. The results will help you decide how hot, cold, wet, or windy it might be!

Date:

Astronomy

Mar. 22, 2014 Rise Set
Actual Time 3:56 AM WGT 4:50 PM WGT
Civil Twilight 2:21 AM WGT 6:27 PM WGT
Nautical Twilight 11:34 PM WGT 9:31 PM WGT
Astronomical Twilight Sun does not rise Sun does not rise
Moon No Moon Rise No Moon Set
Length of Visible Light 16h 05m
Length of Day
12h 54m
Waning Gibbous, 66% of the Moon is Illuminated
Mar 22
Waning Gibbous
Mar 23
Last Quarter
Mar 30
New
Apr 7
First Quarter
Apr 15
Full

Hourly Weather History & Observations

Time (WGT) Temp. Dew Point Humidity Pressure Visibility Wind Dir Wind Speed Gust Speed Precip Events Conditions
12:00 AM -15 °F -21 °F 62% 29.83 in 17 mi WNW 5.8 mph - -   Mostly Cloudy
1:00 AM -15 °F -20 °F 68% 29.83 in 31 mi WNW 6.9 mph - -   Scattered Clouds
2:00 AM -18 °F -23 °F 65% 29.83 in 31 mi NW 4.6 mph - -   Scattered Clouds
3:00 AM -16 °F -21 °F 65% 29.82 in 31 mi NW 4.6 mph - -   Scattered Clouds
4:00 AM -14 °F -19 °F 64% 29.83 in 31 mi NW 3.5 mph - -   Mostly Cloudy
5:00 AM -13 °F -18 °F 67% 29.83 in 31 mi WNW 8.1 mph - -  
6:00 AM -15 °F -20 °F 64% 29.83 in 31 mi NW 8.1 mph - -   Scattered Clouds
7:00 AM -12 °F -16 °F 70% 29.83 in 28 mi West 4.6 mph - -   Scattered Clouds
8:00 AM -14 °F -19 °F 68% 29.83 in 25 mi NW 13.8 mph - -   Scattered Clouds
9:00 AM -11 °F -16 °F 70% 29.83 in 31 mi WNW 12.7 mph - - Snow Light Snow Showers
10:00 AM -13 °F -18 °F 66% 29.82 in 22 mi WNW 11.5 mph - -  
11:00 AM -14 °F -19 °F 67% 29.82 in 28 mi WNW 11.5 mph - -  
12:00 PM -14 °F -19 °F 67% 29.81 in 28 mi WNW 12.7 mph - -  
1:00 PM -13 °F -18 °F 69% 29.80 in 31 mi NW 11.5 mph - -  
2:00 PM -13 °F -18 °F 67% 29.79 in 31 mi NW 11.5 mph - -  
3:00 PM -12 °F -17 °F 66% 29.78 in 31 mi WNW 11.5 mph - -  
4:00 PM -12 °F -17 °F 69% 29.77 in 31 mi NW 10.4 mph - -  
5:00 PM -13 °F -18 °F 65% 29.76 in 31 mi NW 10.4 mph - -   Scattered Clouds
6:00 PM -22 °F -28 °F 60% 29.76 in 31 mi West 4.6 mph - -   Partly Cloudy
7:00 PM -19 °F -25 °F 60% 29.75 in 31 mi WNW 4.6 mph - -   Scattered Clouds
8:00 PM -15 °F -21 °F 62% 29.75 in 31 mi NW 12.7 mph - -   Partly Cloudy
9:00 PM -16 °F -21 °F 65% 29.74 in 31 mi NW 5.8 mph - -   Scattered Clouds
10:00 PM -16 °F -21 °F 66% 29.73 in 31 mi NW 9.2 mph - -   Scattered Clouds
11:00 PM -10 °F -15 °F 66% 29.71 in 31 mi WNW 11.5 mph - -   Overcast